Dewpoint
27 21 15 16 20 17 15 15 13 18 24 24 26 28 30 36 38 39 41 42 41 40 42 48 53 54 62 67 70 71 71 72 69 67 64 65 64 66 65 69 72 73 73 73
23 19 16 15 17 16 15 15 13 17 24 24 24 28 31 35 38 38 37 39 39 41 42 47 59 62 64 67 68 70 70 72 71 68 68 67 67 67 69 71 70 71 71 72
19 18 14 15 17 18 16 15 18 17 21 24 24 27 30 34 37 38 38 38 39 40 41 44 55 62 65 68 69 69 70 71 70 69 68 67 70 68 65 64 63 65 65 67
14 20 19 17 16 15 14 15 16 18 22 17 25 21 30 33 35 36 38 39 41 42 43 43 46 60 64 66 67 69 70 70 69 70 68 70 66 63 62 59 59 58 59 58
10 14 23 18 14 14 14 14 15 19 22 17 23 18 26 31 32 37 38 39 40 40 41 42 44 53 60 64 66 68 69 70 71 71 71 67 65 62 58 56 59 60 59 56
18 11 19 15 17 18 19 15 13 16 14 15 20 17 16 26 31 33 37 38 38 37 38 40 47 58 60 62 64 67 69 70 70 69 68 66 64 60 55 54 50 48 49 50
19 10 8 13 16 20 20 19 13 9 7 8 15 17 17 24 28 30 33 34 36 36 37 39 47 55 59 61 64 66 67 67 66 65 64 62 61 60 59 53 47 49 46 47
14 10 12 10 15 16 19 19 10 12 11 8 13 13 16 23 26 26 29 33 34 36 35 38 43 51 57 60 63 63 63 62 61 59 58 59 60 48 49 54 49 48 48 50
17 13 15 8 9 12 16 16 17 14 15 8 15 18 22 22 28 33 32 34 37 36 37 38 42 52 57 60 61 61 59 58 56 56 56 56 55 54 55 58 57 51 55 49
19 17 15 9 8 11 16 17 16 17 17 15 13 17 13 24 25 26 27 31 35 37 36 38 44 55 57 59 61 60 57 56 55 55 54 54 56 56 56 57 56 56 56 54
21 19 17 13 13 10 13 14 17 16 17 15 17 19 23 25 28 31 33 34 39 41 39 40 46 56 57 58 57 56 54 53 53 53 55 55 54 54 54 56 55 55 55 54
28 21 17 12 13 13 14 15 20 19 21 21 22 22 32 35 39 42 40 40 42 44 44 46 52 56 56 56 53 52 52 50 52 52 53 53 53 53 55 54 54 54 53 52
28 24 18 18 18 18 15 15 17 22 26 22 21 23 39 43 43 42 43 42 46 50 51 51 54 55 56 53 50 50 50 49 49 49 51 53 53 53 54 53 53 52 50 49
37 27 23 18 15 19 18 15 17 23 27 22 19 26 37 40 41 44 45 46 49 52 53 53 55 57 51 50 49 48 49 49 49 49 50 52 52 52 51 51 50 49 48 48
35 29 26 20 17 16 17 14 16 20 21 20 19 19 24 40 45 44 46 48 50 53 55 56 55 51 51 51 50 49 48 49 49 47 48 49 49 48 47 48 47 47 47 45
35 34 29 28 27 25 22 16 15 15 16 17 17 25 39 46 43 46 48 50 51 53 52 52 50 49 49 49 48 48 47 47 47 46 44 45 45 44 45 45 45 44 43 43
33 32 29 27 28 26 24 25 19 19 19 20 19 31 45 42 44 47 47 48 47 48 47 48 48 47 47 47 47 46 45 45 44 43 41 41 41 40 40 40 40 41 42 42
33 34 31 29 33 24 33 35 29 28 28 35 38 44 43 44 45 45 47 46 45 45 45 44 45 44 45 44 43 43 42 42 40 39 38 37 35 35 36 37 38 41 40 41
38 33 34 32 29 28 30 36 35 34 37 42 43 45 42 42 42 41 42 45 44 42 40 39 39 38 37 38 39 39 38 38 37 35 34 33 33 34 36 37 39 40 40 41
38 37 33 31 29 24 28 36 37 36 30 43 45 44 43 42 38 38 40 39 38 38 38 37 40 37 36 36 38 37 36 36 35 34 34 34 35 35 36 38 39 40 40 40
37 35 33 27 30 24 36 37 37 31 38 45 45 46 45 44 46 42 40 39 38 37 37 36 35 33 34 35 36 35 35 35 35 36 35 35 36 37 37 38 38 38 39 38
35 37 37 34 32 27 38 38 33 44 47 46 46 47 45 42 40 39 38 37 35 34 32 31 31 32 33 34 35 35 35 36 35 35 35 35 36 35 34 36 37 38 37 37
38 36 36 36 34 46 44 46 46 46 46 45 45 43 42 39 38 37 36 35 33 31 30 29 30 33 33 34 35 35 34 34 34 35 35 35 35 35 35 36 36 34 35 33
41 41 38 40 40 41 42 44 44 44 44 44 43 42 40 38 37 35 34 32 29 30 30 30 31 31 33 33 34 34 33 34 34 34 34 34 33 34 35 32 32 33 33 33
38 40 40 38 38 38 39 41 42 42 41 40 39 38 37 36 34 33 30 29 29 29 30 31 31 32 32 33 33 33 33 35 33 34 34 33 32 33 32 32 32 31 33 31
40 38 36 35 39 40 40 41 40 40 39 38 37 36 35 33 31 30 28 29 29 29 31 31 32 33 32 32 33 33 35 35 35 35 33 33 32 31 31 31 32 33 33 33
Lifted_Index
3 4 4 4 3 3 3 3 3 3 3 3 3 2 1 1 1 0 -0 -0 0 0 1 -0 -1 -2 -4 -6 -7 -7 -7 -6 -6 -5 -5 -5 -5 -5 -5 -5 -6 -6 -6 -5
3 3 4 3 3 2 2 2 2 2 3 3 3 2 1 1 1 1 0 0 0 0 1 -0 -2 -4 -5 -6 -6 -6 -6 -6 -6 -6 -5 -5 -5 -5 -5 -4 -4 -4 -4 -4
3 4 4 3 3 2 2 2 2 2 3 3 3 2 1 1 1 1 1 1 1 0 0 -0 -2 -4 -6 -6 -6 -6 -6 -6 -6 -6 -5 -5 -5 -4 -3 -2 -2 -2 -1 -1
4 4 4 4 3 3 3 2 2 3 3 2 2 2 1 1 1 1 1 1 1 1 0 -0 -2 -4 -5 -6 -6 -6 -6 -6 -6 -6 -5 -5 -4 -3 -1 0 1 1 2 2
5 4 4 4 3 2 2 3 3 3 2 2 1 1 1 1 1 1 1 1 1 1 1 0 -1 -3 -5 -6 -6 -6 -7 -7 -7 -6 -5 -4 -2 -1 1 2 3 4 5 6
4 5 4 3 3 2 2 3 3 3 2 1 1 2 1 2 2 2 1 1 2 2 1 1 -1 -3 -4 -5 -6 -7 -7 -7 -6 -5 -4 -2 -0 1 3 4 5 6 7 8
4 4 4 4 3 3 2 2 2 1 1 1 2 2 2 2 3 3 2 2 2 2 2 1 -0 -2 -4 -5 -6 -6 -6 -5 -4 -3 -1 -0 1 3 4 6 7 7 7 8
2 3 4 4 4 4 3 2 1 0 0 1 2 3 3 3 4 4 3 2 2 2 2 1 -0 -2 -3 -4 -5 -5 -4 -3 -2 -0 1 2 3 4 5 5 6 6 7 7
1 2 3 4 5 4 3 2 1 0 -0 1 2 3 4 4 4 4 4 3 3 3 2 2 -0 -2 -4 -4 -4 -4 -2 -1 0 1 2 3 3 4 4 4 5 5 6 6
1 2 3 4 4 4 3 3 2 1 -0 0 1 2 3 4 4 4 3 3 2 2 2 1 -1 -3 -4 -4 -4 -3 -1 0 1 2 2 2 3 3 3 4 4 4 5 5
1 2 3 4 4 4 4 3 2 1 0 -0 0 1 2 2 3 2 2 2 1 1 1 0 -1 -3 -4 -4 -3 -2 -0 1 1 1 2 2 3 3 3 4 4 5 5 6
1 2 2 3 3 4 3 3 3 2 1 -0 -0 -0 -0 0 0 0 0 1 0 -0 -0 -1 -3 -4 -4 -3 -2 -1 0 1 1 1 2 2 3 4 4 4 5 5 6 6
1 1 2 2 3 3 3 3 3 2 1 0 -1 -1 -2 -2 -2 -2 -1 -1 -1 -2 -2 -3 -4 -4 -4 -2 -1 -0 0 1 1 1 2 2 3 4 5 5 5 6 7 7
1 1 1 1 2 3 3 3 2 1 1 -0 -1 -2 -3 -3 -3 -3 -3 -3 -3 -4 -4 -4 -4 -4 -3 -1 -1 -0 0 1 1 2 2 3 4 5 5 5 6 7 7 8
1 -0 -1 -0 1 1 2 2 2 1 0 -1 -1 -1 -2 -3 -4 -3 -3 -4 -4 -4 -4 -4 -3 -2 -1 -1 -0 0 0 1 1 2 3 3 4 5 5 6 7 8 8 9
0 -1 -2 -2 -1 -1 -1 0 1 1 0 -0 -1 -2 -3 -3 -3 -3 -3 -3 -3 -3 -3 -3 -2 -1 -1 -0 -0 0 1 1 2 3 3 4 5 5 6 7 8 9 10 11
-0 -1 -2 -2 -2 -2 -2 -1 -1 -0 -0 -1 -2 -3 -3 -2 -2 -2 -1 -1 -1 -1 -2 -2 -1 -1 -1 -0 -0 0 1 2 3 4 5 5 6 7 8 10 11 12 12 13
-1 -1 -2 -2 -2 -2 -2 -2 -2 -1 -1 -2 -3 -3 -2 -1 -1 -1 -1 -0 -0 -0 -1 -1 -1 -1 -0 0 1 2 3 4 4 5 6 7 9 10 11 12 13 13 13 13
-1 -1 -1 -2 -2 -2 -2 -2 -2 -2 -3 -3 -3 -2 -1 -1 -0 -0 -0 0 0 0 0 0 0 0 1 2 3 4 4 5 6 8 9 10 12 12 13 13 13 13 12 12
-1 -1 -1 -1 -1 -2 -2 -2 -2 -2 -2 -3 -3 -1 -1 -1 -0 0 1 1 1 1 1 2 2 2 3 4 5 6 7 8 9 11 12 12 12 13 12 12 12 12 11 11
-1 -1 -1 -1 -1 -1 -1 -2 -2 -2 -2 -2 -2 -1 -1 -1 -0 0 1 2 2 3 3 4 4 5 6 8 9 9 10 11 11 12 12 12 12 12 11 11 11 11 11 10
-1 -1 -1 -1 -1 -1 -1 -1 -2 -2 -2 -2 -2 -1 -1 -1 -0 0 1 2 3 4 5 6 7 8 10 11 12 12 12 12 12 12 11 11 11 11 11 11 10 10 10 10
-1 -1 -1 -1 -1 -0 -0 -1 -1 -1 -1 -1 -1 -1 -1 -1 -0 1 2 3 4 5 7 9 10 11 12 12 12 12 12 12 11 11 11 11 11 11 11 11 10 10 10 10
-1 -1 -1 -1 -0 -0 -0 -0 -0 -0 -0 -0 -0 -0 -0 0 1 2 3 4 5 8 10 11 12 13 13 12 12 12 12 12 12 11 11 11 11 11 12 12 11 11 11 10
-0 -0 -0 -0 -0 -0 0 1 1 1 1 0 1 1 1 2 2 3 5 6 8 11 12 13 13 13 13 12 12 13 13 13 12 12 12 12 12 12 12 12 13 13 13 13
0 0 0 -0 -0 0 1 1 1 1 1 1 1 2 3 3 3 5 7 9 11 13 14 14 14 14 13 13 13 13 14 14 13 12 12 12 12 12 12 12 13 15 16 16